When you browse on this site, cookies collect data to enhance your experience and personalize the content and advertising you see.
Visit our Privacy Policy to learn more. By continuing to use the site, you agree to this use of cookies and data.
  • In Czech Republic
  • List of Countries
  • For 7 days
  • Water Temperature
  • Weather Map
  • Weather Widgets
  • user-avatar
    Login

    Hourly Weather Albany

    Today, 20 October, Sunday

    Time Temperature Precipitation Wind Pressure Humidity
    00:00 +12°C° 0 mm 7 mps 758 mmHg 89%
    01:00 +13°C° 0 mm 6 mps 757 mmHg 89%
    02:00 +13°C° 0 mm 6 mps 757 mmHg 89%
    03:00 +13°C° 0 mm 6 mps 756 mmHg 81%
    04:00 +14°C° 0 mm 6 mps 756 mmHg 74%
    05:00 +14°C° 0 mm 5 mps 756 mmHg 66%
    06:00 +16°C° 0 mm 5 mps 756 mmHg 62%
    07:00 +19°C° 0 mm 4 mps 756 mmHg 58%
    08:00 +21°C° 0 mm 3 mps 755 mmHg 53%
    09:00 +24°C° 0 mm 3 mps 755 mmHg 50%
    10:00 +26°C° 0 mm 4 mps 755 mmHg 46%
    11:00 +28°C° 0 mm 4 mps 755 mmHg 43%
    12:00 +27°C° 0 mm 4 mps 755 mmHg 44%
    13:00 +27°C° 0 mm 5 mps 754 mmHg 46%
    14:00 +28°C° 0 mm 5 mps 754 mmHg 47%
    15:00 +25°C° 0 mm 5 mps 755 mmHg 56%
    16:00 +22°C° 0 mm 5 mps 755 mmHg 65%
    17:00 +20°C° 0 mm 5 mps 756 mmHg 75%
    18:00 +19°C° 0 mm 5 mps 756 mmHg 81%
    19:00 +17°C° 0 mm 4 mps 757 mmHg 88%
    20:00 +15°C° 0 mm 4 mps 758 mmHg 95%
    21:00 +15°C° 0 mm 4 mps 758 mmHg 93%
    22:00 +17°C° 0 mm 4 mps 758 mmHg 91%
    23:00 +17°C° 0 mm 4 mps 758 mmHg 89%

    Tomorrow, 21 October, Monday

    Time Temperature Precipitation Wind Pressure Humidity
    00:00 +15°C° 0 mm 4 mps 758 mmHg 89%
    01:00 +16°C° 0 mm 3 mps 758 mmHg 89%
    02:00 +14°C° 0 mm 3 mps 758 mmHg 89%
    03:00 +13°C° 0 mm 3 mps 758 mmHg 91%
    04:00 +12°C° 0 mm 3 mps 758 mmHg 93%
    05:00 +12°C° 0 mm 3 mps 759 mmHg 96%
    06:00 +13°C° 0 mm 3 mps 759 mmHg 90%
    07:00 +16°C° 0 mm 3 mps 759 mmHg 85%
    08:00 +17°C° 0 mm 3 mps 759 mmHg 80%
    09:00 +19°C° 0 mm 3 mps 759 mmHg 70%
    10:00 +21°C° 0 mm 3 mps 759 mmHg 61%
    11:00 +22°C° 0 mm 3 mps 759 mmHg 52%
    12:00 +22°C° 0 mm 3 mps 759 mmHg 53%
    13:00 +24°C° 0 mm 3 mps 759 mmHg 54%
    14:00 +23°C° 0 mm 4 mps 759 mmHg 56%
    15:00 +22°C° 0 mm 4 mps 759 mmHg 59%
    16:00 +21°C° 0 mm 3 mps 759 mmHg 63%
    17:00 +20°C° 0 mm 3 mps 759 mmHg 66%
    18:00 +18°C° 0 mm 3 mps 760 mmHg 76%
    19:00 +16°C° 0 mm 2 mps 760 mmHg 85%
    20:00 +15°C° 0 mm 2 mps 761 mmHg 94%
    21:00 +15°C° 0 mm 1 mps 761 mmHg 94%
    22:00 +14°C° 0 mm 1 mps 761 mmHg 95%
    23:00 +14°C° 0 mm 1 mps 761 mmHg 96%

    Day after tomorrow, 22 October, Tuesday

    Time Temperature Precipitation Wind Pressure Humidity
    00:00 +14°C° 0 mm 1 mps 761 mmHg 96%
    01:00 +14°C° 0 mm 2 mps 760 mmHg 96%
    02:00 +14°C° 0 mm 2 mps 760 mmHg 96%
    03:00 +14°C° 0 mm 2 mps 761 mmHg 96%
    04:00 +14°C° 0 mm 2 mps 761 mmHg 95%
    05:00 +14°C° 0 mm 2 mps 761 mmHg 95%
    06:00 +15°C° 0 mm 2 mps 761 mmHg 91%
    07:00 +17°C° 0 mm 2 mps 761 mmHg 86%
    08:00 +18°C° 0 mm 2 mps 761 mmHg 82%
    09:00 +20°C° 0 mm 2 mps 760 mmHg 74%
    10:00 +23°C° 0 mm 2 mps 760 mmHg 66%
    11:00 +25°C° 0 mm 1 mps 760 mmHg 58%
    12:00 +24°C° 0 mm 2 mps 759 mmHg 59%
    13:00 +24°C° 0 mm 2 mps 759 mmHg 60%
    14:00 +24°C° 0 mm 2 mps 758 mmHg 61%
    15:00 +22°C° 0.1 mm 3 mps 758 mmHg 65%
    16:00 +21°C° 0.1 mm 3 mps 758 mmHg 70%
    17:00 +20°C° 0.1 mm 3 mps 758 mmHg 74%
    18:00 +19°C° 0 mm 2 mps 758 mmHg 79%
    19:00 +17°C° 0 mm 2 mps 758 mmHg 83%
    20:00 +16°C° 0 mm 1 mps 758 mmHg 88%
    21:00 +15°C° 0 mm 1 mps 758 mmHg 89%
    22:00 +15°C° 0 mm 1 mps 758 mmHg 90%
    23:00 +15°C° 0 mm 1 mps 758 mmHg 91%

    23 October, Wednesday

    Time Temperature Precipitation Wind Pressure Humidity
    00:00 +14°C° 0 mm 2 mps 758 mmHg 92%
    01:00 +13°C° 0 mm 3 mps 757 mmHg 93%
    02:00 +12°C° 0 mm 3 mps 757 mmHg 94%
    03:00 +12°C° 0 mm 3 mps 757 mmHg 94%
    04:00 +12°C° 0 mm 4 mps 757 mmHg 94%
    05:00 +11°C° 0 mm 4 mps 757 mmHg 94%
    06:00 +13°C° 0 mm 4 mps 757 mmHg 87%
    07:00 +15°C° 0 mm 5 mps 757 mmHg 80%
    08:00 +17°C° 0 mm 6 mps 757 mmHg 74%
    09:00 +19°C° 0 mm 6 mps 756 mmHg 70%
    10:00 +20°C° 0 mm 6 mps 756 mmHg 66%
    11:00 +22°C° 0 mm 6 mps 756 mmHg 62%
    12:00 +21°C° 0.1 mm 7 mps 756 mmHg 66%
    13:00 +20°C° 0.1 mm 7 mps 755 mmHg 69%
    14:00 +18°C° 0.1 mm 7 mps 755 mmHg 73%
    15:00 +17°C° 0.2 mm 7 mps 755 mmHg 74%
    16:00 +16°C° 0.2 mm 7 mps 755 mmHg 76%
    17:00 +15°C° 0.2 mm 7 mps 755 mmHg 77%
    18:00 +14°C° 0 mm 6 mps 755 mmHg 74%
    19:00 +14°C° 0 mm 6 mps 756 mmHg 70%
    20:00 +13°C° 0 mm 6 mps 756 mmHg 67%
    21:00 +13°C° 0.1 mm 6 mps 756 mmHg 71%
    22:00 +11°C° 0.1 mm 6 mps 756 mmHg 75%
    23:00 +10°C° 0.1 mm 6 mps 756 mmHg 79%

    24 October, Thursday

    Time Temperature Precipitation Wind Pressure Humidity
    00:00 +10°C° 0.2 mm 6 mps 755 mmHg 82%
    01:00 +10°C° 0.2 mm 6 mps 755 mmHg 85%
    02:00 +10°C° 0.2 mm 6 mps 755 mmHg 87%
    03:00 +10°C° 0.4 mm 6 mps 755 mmHg 86%
    04:00 +9°C° 0.4 mm 7 mps 755 mmHg 85%
    05:00 +9°C° 0.4 mm 7 mps 755 mmHg 84%
    06:00 +10°C° 0.2 mm 8 mps 756 mmHg 79%
    07:00 +11°C° 0.2 mm 8 mps 756 mmHg 74%
    08:00 +12°C° 0.2 mm 9 mps 757 mmHg 68%
    09:00 +13°C° 0.1 mm 9 mps 757 mmHg 63%
    10:00 +13°C° 0.1 mm 9 mps 758 mmHg 58%
    11:00 +15°C° 0.1 mm 9 mps 758 mmHg 53%
    12:00 +15°C° 0 mm 9 mps 758 mmHg 54%
    13:00 +15°C° 0 mm 9 mps 758 mmHg 54%
    14:00 +15°C° 0 mm 9 mps 759 mmHg 55%
    15:00 +15°C° 0 mm 9 mps 759 mmHg 58%
    16:00 +13°C° 0 mm 8 mps 759 mmHg 61%
    17:00 +12°C° 0 mm 8 mps 759 mmHg 63%
    18:00 +11°C° 0 mm 7 mps 760 mmHg 69%
    19:00 +10°C° 0 mm 6 mps 761 mmHg 74%
    20:00 +9°C° 0 mm 6 mps 761 mmHg 80%
    21:00 +9°C° 0 mm 5 mps 761 mmHg 83%
    22:00 +8°C° 0 mm 5 mps 762 mmHg 86%
    23:00 +8°C° 0 mm 5 mps 762 mmHg 88%

    25 October, Friday

    Time Temperature Precipitation Wind Pressure Humidity
    00:00 +8°C° 0 mm 5 mps 761 mmHg 89%
    01:00 +8°C° 0 mm 4 mps 761 mmHg 90%
    02:00 +7°C° 0 mm 4 mps 761 mmHg 90%
    03:00 +7°C° 0 mm 4 mps 761 mmHg 90%
    04:00 +7°C° 0 mm 4 mps 761 mmHg 90%
    05:00 +7°C° 0 mm 4 mps 761 mmHg 90%
    06:00 +10°C° 0 mm 4 mps 762 mmHg 83%
    07:00 +12°C° 0 mm 4 mps 762 mmHg 76%
    08:00 +14°C° 0 mm 5 mps 762 mmHg 69%
    09:00 +15°C° 0 mm 5 mps 762 mmHg 64%
    10:00 +16°C° 0 mm 5 mps 762 mmHg 58%
    11:00 +17°C° 0 mm 5 mps 763 mmHg 53%
    12:00 +19°C° 0 mm 5 mps 763 mmHg 52%
    13:00 +19°C° 0 mm 5 mps 763 mmHg 51%
    14:00 +19°C° 0 mm 5 mps 763 mmHg 50%
    15:00 +18°C° 0 mm 4 mps 762 mmHg 54%
    16:00 +17°C° 0 mm 4 mps 762 mmHg 58%
    17:00 +17°C° 0 mm 4 mps 762 mmHg 61%
    18:00 +14°C° 0 mm 3 mps 762 mmHg 69%
    19:00 +12°C° 0 mm 3 mps 763 mmHg 77%
    20:00 +10°C° 0 mm 2 mps 763 mmHg 85%
    21:00 +10°C° 0 mm 2 mps 763 mmHg 86%
    22:00 +11°C° 0 mm 1 mps 763 mmHg 87%
    23:00 +10°C° 0 mm 1 mps 764 mmHg 88%
    Show more